Torna al catalogo

CZ-4 DEB

AttivoSSO
NORAD 35383·DEBRIS·🇨🇳 China

Lanciato Oct 21, 2003 da Taiyuan Satellite Launch Center

Loading…

Prossimi Passaggi (prossime 24 ore)

TLE

AggiornatoSource: Space-Track

Epoca: Sep 11, 2026, 18:02 UTC

1 35383U 03049K   26254.75168543  .00000162  00000-0  45343-4 0  9998
2 35383  98.6538 265.5446 0047648 237.0835 122.5775 14.58919870724938

Traccia CZ-4 DEB in tempo reale con AllMySat

Download on the App Store